EHI
1 1 1 0 0 0 0 0 0 0 0 0 0 0 0 0 0 0 0 0 0 0 0 0 0 0 0 0 0 0 0 0 0 0 0 0 0 0 0 0 0 0 0
0 1 1 0 0 0 0 0 0 0 0 0 0 0 0 0 0 0 0 0 0 0 0 0 0 0 0 0 0 0 0 0 0 0 0 0 0 0 0 0 0 0 0
0 0 0 0 0 0 0 0 0 0 0 0 0 0 0 0 0 0 0 0 0 0 0 0 0 0 0 0 0 0 0 0 0 0 0 0 0 0 0 0 0 0 0
0 0 0 0 0 0 0 0 0 0 0 0 0 0 0 0 0 0 0 0 0 0 0 0 0 0 0 0 0 0 0 0 0 0 0 0 0 0 0 0 0 0 0
0 0 0 0 0 0 0 0 0 0 0 0 0 0 0 0 0 0 0 0 0 0 0 0 0 0 0 0 0 0 0 0 0 0 0 0 0 0 0 0 0 0 0
0 0 0 0 0 0 0 0 0 0 0 0 0 0 0 0 0 0 0 0 0 0 0 0 0 0 0 0 0 0 0 0 0 0 0 0 0 0 0 0 0 0 0
0 0 0 0 0 0 0 0 0 0 0 0 0 0 0 0 0 0 0 0 0 0 0 0 0 0 0 0 0 0 0 0 0 0 0 0 0 0 0 0 0 0 0
0 0 0 0 0 0 0 0 0 0 0 0 0 0 0 0 0 0 0 0 0 0 0 0 0 0 0 0 0 0 0 0 0 0 0 0 0 0 0 0 0 0 0
0 0 0 0 0 0 0 0 0 0 0 0 0 0 0 0 0 0 0 0 0 0 0 0 0 0 0 0 0 0 0 0 0 0 0 0 0 0 0 0 0 0 0
0 0 0 0 0 0 0 0 0 0 0 0 0 0 0 0 0 0 0 0 0 0 0 0 0 0 0 0 0 0 0 0 0 0 0 0 0 0 0 0 0 0 0
0 0 0 0 0 0 0 0 0 0 0 0 0 0 0 0 0 0 0 0 0 0 0 0 0 0 0 0 0 0 0 0 0 0 0 0 0 0 0 0 0 0 0
0 0 0 0 0 0 0 0 0 0 0 0 0 0 0 0 0 0 0 0 0 0 0 0 0 0 0 0 0 0 0 0 0 0 0 0 0 0 0 0 0 0 0
0 0 0 0 0 0 0 0 0 0 0 0 0 0 0 0 0 0 0 0 0 0 0 0 0 0 0 0 0 0 0 0 0 0 0 0 0 0 0 0 0 0 0
0 0 0 0 0 0 0 0 0 0 0 0 0 0 0 0 0 0 0 0 0 0 0 0 0 0 0 0 0 0 0 0 0 0 0 0 0 0 0 0 0 0 0
0 0 0 0 0 0 0 0 0 0 0 0 0 0 0 0 0 0 0 0 0 0 0 0 0 0 0 0 0 0 0 0 0 0 0 0 0 0 0 0 0 0 0
0 0 0 0 0 0 0 0 0 0 0 0 0 0 0 0 0 0 0 0 0 0 0 0 0 0 0 0 0 0 0 0 0 0 0 0 0 0 0 0 0 0 0
0 0 0 0 0 0 0 0 0 0 0 0 0 0 0 0 0 0 0 0 0 0 0 0 0 0 0 0 0 0 0 0 0 0 0 0 0 0 0 0 0 0 0
0 0 0 0 0 0 0 0 0 0 0 0 0 0 0 0 0 0 0 0 0 0 0 0 0 0 0 0 0 0 0 0 0 0 0 0 0 0 0 0 0 0 0
0 0 0 0 0 0 0 0 0 0 0 0 0 0 0 0 0 0 0 0 0 0 0 0 0 0 0 0 0 0 0 0 0 0 0 0 0 0 0 0 0 0 0
0 0 0 0 0 0 0 0 0 0 0 0 0 0 0 0 0 0 0 0 0 0 0 0 0 0 0 0 0 0 0 0 0 0 0 0 0 0 0 0 0 0 0
0 0 0 0 0 0 0 0 0 0 0 0 0 0 0 0 0 0 0 0 0 0 0 0 0 0 0 0 0 0 0 0 0 0 0 0 0 0 0 0 0 0 0
0 0 0 0 0 0 0 0 0 0 0 0 0 0 0 0 0 0 0 0 0 0 0 0 0 0 0 0 0 0 0 0 0 0 0 0 0 0 0 0 0 0 0
0 0 0 0 0 0 0 0 0 0 0 0 0 0 0 0 0 0 0 0 0 0 0 0 0 0 0 0 0 0 0 0 0 0 0 0 0 0 0 0 0 0 0
0 0 0 0 0 0 0 0 0 0 0 0 0 0 0 0 0 0 0 0 0 0 0 0 0 0 0 0 0 0 0 0 0 0 0 0 0 0 0 0 0 0 0
0 0 0 0 0 0 0 0 0 0 0 0 0 0 0 0 0 0 0 0 0 0 0 0 0 0 0 0 0 0 0 0 0 0 0 0 0 0 0 0 0 0 0
0 0 0 0 0 0 0 0 0 0 0 0 0 0 0 0 0 0 0 0 0 0 0 0 0 0 0 0 0 0 0 0 0 0 0 0 0 0 0 0 0 0 0
Wind_Speed
5 4 3 2 1 1 2 4 5 6 7 7 7 6 5 3 2 1 1 2 4 4 4 6 6 5 4 3 3 3 3 4 5 2 2 3 4 5 4 4 4 4 3
5 4 4 3 1 0 2 3 4 5 6 7 6 5 4 2 0 1 3 3 5 6 5 7 7 6 6 5 4 5 4 4 5 5 3 4 5 4 4 5 5 5 3
5 5 4 3 2 1 2 3 4 5 6 6 5 4 3 3 3 3 4 6 6 6 7 8 7 8 7 5 6 5 4 5 5 6 4 3 3 4 4 4 5 4 4
6 6 5 4 3 3 2 2 3 4 5 6 5 4 4 4 5 6 8 9 9 9 9 9 8 8 8 7 7 6 7 8 7 6 5 3 3 3 3 4 4 4 3
6 6 6 5 4 3 2 1 2 3 4 4 5 6 6 5 6 8 8 10 10 10 10 9 9 11 10 8 7 6 8 7 6 6 4 4 3 4 3 2 3 3 3
7 7 6 6 5 4 3 2 1 1 2 4 5 6 7 6 8 11 10 9 9 10 9 7 9 10 12 12 12 11 9 8 6 5 3 3 2 2 2 2 2 3 4
7 7 7 7 7 6 5 3 2 1 1 3 4 5 6 7 10 11 11 8 8 7 6 6 7 8 8 8 11 13 11 10 8 5 4 2 1 0 1 3 2 1 2
6 7 7 8 8 7 6 5 4 2 2 2 2 3 4 5 8 9 10 8 8 7 6 7 7 6 6 7 8 8 7 6 6 4 3 1 1 1 1 1 1 2 3
6 7 8 9 9 8 8 7 5 4 3 2 3 3 4 3 6 7 8 7 7 6 6 6 7 7 9 11 9 8 7 5 7 9 7 7 7 5 3 3 3 3 3
7 7 7 8 10 10 10 8 5 5 5 4 3 3 4 3 4 6 8 6 6 5 5 5 8 8 10 10 7 7 6 4 4 6 7 7 6 6 7 3 2 2 1
9 7 6 7 9 10 9 7 7 6 6 5 5 3 3 4 4 6 8 5 6 5 4 3 3 9 10 10 8 5 4 3 4 5 4 4 4 4 4 3 2 2 1
9 8 6 7 8 9 9 9 8 9 8 6 5 4 2 3 4 6 9 8 8 6 5 3 3 7 9 8 6 7 8 7 5 5 4 4 3 3 3 3 4 3 1
10 9 7 7 8 8 10 10 9 8 8 7 6 5 4 2 3 6 9 11 11 6 4 7 7 7 6 5 7 8 7 5 4 4 3 2 1 2 2 3 5 5 5
9 10 8 6 7 8 8 9 9 9 9 8 8 7 5 4 3 3 3 5 8 6 5 6 6 5 4 3 4 4 3 3 4 3 2 1 2 3 3 3 3 3 4
8 9 8 6 7 8 8 9 11 10 12 11 9 9 9 7 8 11 8 6 6 6 6 3 2 2 2 2 2 2 3 3 3 2 2 2 3 3 3 2 2 3 3
7 8 6 5 5 6 7 5 6 7 14 15 13 11 9 10 14 15 13 12 12 13 7 3 2 2 3 2 2 2 2 2 2 3 2 2 2 2 2 2 2 3 3
7 7 7 5 5 6 7 9 7 3 7 12 15 16 13 15 17 17 15 14 13 12 4 3 3 3 3 4 4 4 3 3 3 3 3 2 1 2 2 2 3 3 3
8 8 8 5 5 6 7 8 9 9 8 5 6 13 15 17 18 17 15 10 5 4 3 4 4 4 4 4 5 4 4 3 3 3 2 2 2 2 2 1 2 2 2
7 5 5 5 5 5 6 8 8 10 9 7 4 4 9 13 14 15 15 6 6 5 4 4 4 4 4 5 5 5 5 4 4 3 3 3 2 2 2 1 1 3 3
6 10 8 5 5 5 6 7 8 9 9 9 8 7 7 7 6 7 6 5 6 6 5 5 5 5 5 5 6 5 5 5 5 4 3 3 3 3 3 3 2 2 1
5 7 10 6 5 5 6 7 9 10 10 10 9 10 15 11 11 11 9 7 7 7 6 6 5 5 5 5 6 6 7 6 5 5 5 4 4 3 3 3 3 2 1
5 5 5 4 4 4 5 7 8 10 11 11 8 9 15 9 9 9 9 8 7 6 6 6 6 6 6 7 7 7 7 7 6 6 6 5 5 4 4 3 3 2 2
5 5 5 4 3 5 5 6 8 9 10 10 10 10 11 8 8 9 9 8 7 6 6 6 6 5 5 6 7 8 9 9 8 8 8 6 6 5 5 4 4 4 2
5 5 5 4 4 4 5 5 7 9 11 11 11 11 12 11 10 10 9 8 7 7 6 6 7 8 10 8 7 7 8 8 8 9 11 9 8 6 5 5 4 4 3
5 5 4 4 5 4 5 5 6 8 10 11 11 11 11 11 10 9 8 8 9 8 9 8 7 8 11 12 11 10 11 12 10 9 9 8 9 8 7 7 5 5 4
5 4 4 4 4 4 4 5 6 8 9 10 11 11 11 11 11 9 8 8 8 8 9 8 10 11 11 11 13 13 12 12 12 12 9 8 9 8 8 6 7 6 5
Wind_Direction
193 188 175 183 195 335 323 313 314 315 313 310 309 307 300 283 267 240 207 170 152 145 141 138 133 130 127 127 120 116 110 117 120 80 46 46 58 52 32 32 29 28 9
192 183 180 177 167 305 311 310 314 316 316 316 318 320 325 315 292 156 149 125 125 129 125 124 122 117 107 104 102 98 98 106 118 108 61 45 49 47 39 35 23 23 5
185 177 176 176 182 220 275 302 309 317 321 326 330 345 4 20 51 80 94 96 97 101 109 111 110 108 101 100 98 94 90 90 96 104 87 53 44 34 33 20 14 3 3
182 179 183 189 197 208 233 276 306 318 334 348 355 14 34 49 65 72 80 82 80 79 82 86 90 95 98 95 89 88 92 91 89 92 84 54 38 15 35 15 0 349 351
185 187 193 192 192 192 206 240 300 323 351 8 23 31 40 54 69 78 81 85 82 78 73 74 79 84 84 85 94 94 94 94 90 87 79 60 36 29 17 353 359 334 333
195 196 189 182 181 186 193 203 248 332 7 29 42 46 47 56 76 83 89 86 85 85 80 76 76 73 77 79 86 91 98 104 103 95 85 78 49 27 4 11 9 12 342
206 198 187 181 183 188 186 180 189 193 69 62 55 62 62 56 68 82 88 91 89 90 90 83 82 72 71 78 77 75 73 82 102 115 106 104 101 29 41 23 16 5 289
220 203 190 183 186 184 180 184 188 178 149 116 93 84 81 71 78 89 93 90 91 89 89 91 90 75 76 88 86 76 67 61 68 80 105 127 146 155 143 164 251 312 304
239 218 200 189 185 181 185 188 183 170 161 150 137 124 106 81 84 99 100 95 93 85 83 87 95 87 88 92 89 82 64 39 51 69 81 81 84 88 94 62 30 30 349
287 257 220 195 187 186 188 184 176 169 167 158 152 147 134 126 115 114 116 111 105 96 80 76 87 97 93 91 92 90 76 40 42 56 52 45 48 48 54 70 89 62 1
307 293 253 213 198 190 184 178 172 167 161 159 156 156 151 152 148 142 138 129 133 126 115 101 96 104 96 92 92 92 98 99 80 77 64 45 34 30 24 27 57 108 93
311 299 271 233 212 195 181 178 174 169 164 162 156 155 158 161 160 155 153 152 147 136 141 142 132 115 100 92 83 83 87 89 82 73 61 42 29 12 356 4 17 30 65
313 302 279 245 220 193 182 179 174 172 171 170 168 169 171 171 179 173 164 163 156 143 154 157 146 121 95 77 71 78 81 83 84 78 69 36 338 334 6 12 9 10 7
305 302 290 257 225 199 185 179 177 179 177 176 176 174 168 167 176 168 147 149 148 132 131 143 132 107 85 76 67 68 82 104 112 112 111 40 16 24 24 22 20 9 11
299 297 286 264 233 206 192 187 183 188 184 179 181 175 171 179 194 176 159 156 156 148 130 103 93 87 75 62 64 72 83 90 96 98 90 63 39 31 14 9 25 26 24
291 295 282 271 245 214 190 177 187 182 184 183 178 173 183 182 173 178 176 169 162 151 131 133 150 159 163 160 143 124 120 123 123 112 96 84 65 48 21 7 23 31 14
275 289 283 269 251 214 190 178 171 155 175 182 183 180 177 172 171 177 178 172 166 152 134 156 166 175 178 172 165 155 158 159 140 124 116 107 89 68 57 27 17 19 7
266 279 281 265 260 220 193 183 176 172 169 172 187 190 180 172 172 173 165 144 153 165 160 168 178 180 174 167 164 159 155 148 138 135 133 125 110 95 81 56 32 30 15
263 263 273 270 257 226 192 180 176 175 172 161 140 157 178 169 165 165 156 154 166 179 182 179 181 178 175 170 168 164 160 160 158 151 150 147 134 116 102 91 69 43 42
258 267 272 268 257 226 191 180 177 173 170 168 170 160 148 139 152 168 182 177 174 180 181 185 186 183 179 174 169 166 163 164 163 161 163 161 150 136 135 126 113 89 54
252 264 271 262 250 221 195 183 179 174 175 176 176 172 168 172 177 180 186 187 185 186 185 187 187 185 184 179 174 174 174 176 175 171 168 168 160 151 150 143 136 123 94
245 245 251 254 252 225 199 187 183 178 177 174 166 166 177 176 176 181 189 195 195 191 185 182 187 190 188 185 182 181 183 183 181 176 173 171 166 159 153 146 138 131 117
243 247 255 258 255 229 206 189 184 179 176 174 168 165 177 190 184 187 193 196 193 194 190 185 188 197 199 194 190 186 189 192 188 178 173 172 168 166 161 158 154 147 144
239 242 249 253 248 225 205 190 185 181 176 174 171 173 181 191 192 193 194 193 194 198 197 194 199 205 205 199 199 199 199 192 180 178 175 173 172 169 164 161 159 156 155
238 235 235 244 244 225 204 190 186 180 176 176 176 177 182 188 193 194 193 193 195 200 205 206 207 211 212 209 204 205 202 192 185 177 173 172 171 170 167 163 159 154 154
243 229 224 237 241 220 203 194 187 180 176 175 176 179 182 187 193 194 192 192 196 203 207 211 214 213 213 210 209 204 195 188 182 177 172 171 171 171 168 166 163 159 157